Satcom 4

operational
NORAD ID: 13035 Int'l Des: 1982-004 Owner: AMC Country: US
HEOCIRCULAR

About Satcom 4

Description loading...

Live Position

Loading 3D Globe...

Upcoming Passes

Altitude History

Altitude vs Time

uPlot chart will show altitude changes over time

Two-Line Element Set

1 13035U 82004A 26061.07237645 -.00000316 00000-0 00000-0 0 9996
2 13035 12.8923 336.3243 0044504 201.9324 157.9012 0.99597618124142
Epoch: Mar 2, 2026 • Age: 35 hours

Current Status

Altitude 35894.3 km
Velocity 3.07 km/s
Sub-Earth Point 8.76°N, 147.16°E
Launch Date Jan 16, 1982
Age 44.1 years
Type other

Technical Details

Classification Payload
Mass 577.00 kg
Dry Mass 554.00 kg
Total Mass 1082.00 kg
Length 1.30 m
Diameter 1.30 m
Span 11.30 m
Shape Box + 2 Pan
Manufacturer RCA
Bus Type Satcom
Phase Status In Orbit
Owner/State AMC/US

Large Constellations

Loading constellations...